World of Logs combat log analyzer allows gamers to save, share and analyze their raiding experiences conveniently and thoroughly in the Blizzard MMO World of Warcraft. If you're new here, make sure you check out the tour for a 1 minute introduction. If you have any questions, we're happy to answer them on the forums.

DPS HPS
Odyn
Helya
Guarm
Reports for Shannox - statistics
# Date Time Damage DPS Guild Realm
1 03 May 2012 00:39 10.43M 265088.4 Dysfunction US-Stormreaver
2 09 Oct 2011 00:44 3.04M 68639.2 The Only Escape EU-Kel'Thuzad
3 16 Aug 2012 00:48 13.27M 274153.6 Ravenfails Finest US-Ravencrest
4 26 Apr 2012 00:48 3.64M 75149.0 Dick Loving Butt Pirates US-Area 52
5 22 Mar 2012 01:07 20.00M 298165.5 Kult der Schattenflamme EU-Der Rat von Dalaran
6 25 Apr 2012 01:08 31.46M 458149.1 Predicted EU-Festung der Stürme
7 29 Apr 2012 01:08 30.68M 446730.3 Conspire EU-Chamber of Aspects
8 25 Jul 2012 01:09 37.09M 534187.3 Conspire EU-Chamber of Aspects
9 25 Jul 2012 01:10 37.03M 527767.2 Kill it Please US-Frostmourne
10 20 Aug 2012 01:10 35.56M 502966.8 ЛАйтовые Логи EU-Борейская тундра
11 23 Aug 2012 01:11 34.03M 476272.6 14 EU-Ревущий фьорд
12 20 Mar 2012 01:11 27.91M 389148.9 Contingency US-Alexstrasza
13 09 Aug 2012 01:11 17.91M 249626.6 blissqt US-Zul'jin
14 15 Aug 2012 01:12 34.41M 473272.8 DepthCore EU-Ysondre
15 30 Mar 2012 01:13 32.37M 442739.2 Onionilog EU-Stormreaver
16 28 Jul 2012 01:13 29.99M 406351.2 У нас есть план EU-Борейская тундра
17 19 Jul 2012 01:13 33.79M 457053.1 may be better EU-Разувий
18 08 May 2012 01:14 36.61M 492883.3 Void US-Laughing Skull
19 11 Jul 2012 01:14 37.22M 501017.7 ScrubBusters EU-The Maelstrom
20 11 Jul 2012 01:14 37.22M 501010.9 ScrubBusters EU-The Maelstrom
21 03 Jun 2012 01:14 33.85M 455695.4 Vital US-Uldaman
22 22 Aug 2012 01:14 36.84M 494402.4 Kill it Please US-Frostmourne
23 11 Apr 2012 01:14 30.94M 414285.8 Predicted EU-Festung der Stürme
24 19 Jul 2012 01:15 36.71M 488963.7 Sheldan EU-Ревущий фьорд
25 30 Jul 2012 01:15 35.88M 476745.7 Korona EU-Malfurion
26 19 Jul 2012 01:15 36.73M 487277.6 Taurro@Ashenvale EU-Ясеневый лес
27 19 Jul 2012 01:15 36.73M 487277.6 Taurro@Ashenvale EU-Ясеневый лес
28 02 Aug 2012 01:15 33.59M 442648.6 Casual EU-Frostwolf
29 14 Jun 2012 01:15 35.56M 468141.5 Созвездие EU-Вечная Песня
30 23 May 2012 01:16 32.72M 429337.3 Epic Peons US-Hellscream
31 16 Apr 2012 01:16 34.74M 455549.1 Conspire EU-Chamber of Aspects
32 15 Feb 2012 01:16 37.49M 491501.7 Энерджайзер EU-Страж Смерти
33 30 Mar 2012 01:16 32.61M 425281.3 ScrubBusters EU-The Maelstrom
34 01 Aug 2012 01:16 34.54M 450379.3 Exhaustion US-Deathwing
35 08 Aug 2012 01:16 32.95M 429327.7 organised confusion EU-Anetheron
36 24 Jul 2012 01:16 19.20M 249488.7 Quantum Force US-Illidan
37 16 Jul 2012 01:17 36.11M 468371.9 genuine EU-Blackrock
38 23 Aug 2012 01:17 34.94M 453221.2 Aurora EU-Stormrage
39 12 Apr 2012 01:17 36.01M 465054.1 Безумное здравомыслие EU-Ревущий фьорд
40 10 Jul 2012 01:17 36.37M 469673.5 13 f cali US-Zul'jin
41 01 Aug 2012 01:17 38.73M 499542.5 Kill it Please US-Frostmourne
42 02 May 2012 01:18 34.92M 447403.6 Freak me Out EU-Arak-arahm
43 21 Aug 2012 01:18 31.96M 408609.0 Verdict US-Shandris
44 12 Aug 2012 01:18 31.64M 404122.0 Афинята EU-Свежеватель Душ
45 18 Apr 2012 01:18 32.99M 421362.3 Conspire EU-Chamber of Aspects
46 27 Jan 2012 01:18 30.99M 395793.8 Uzum (Интервенция) EU-Разувий
47 16 Jun 2012 01:18 35.24M 448572.1 Tears of Abaddon 2T EU-Eredar
48 04 Apr 2012 01:18 16.15M 205201.5 Pwnanza EU-Kazzak
49 24 Apr 2012 01:18 33.46M 425017.9 Kinetic US-Frostmane
50 29 Jul 2012 01:18 37.25M 471742.1 Duality US-Zul'jin
51 15 Apr 2012 01:19 35.98M 455182.9 303030 EU-Al'Akir
52 03 Apr 2012 01:19 32.20M 407037.5 Moonzlinge EU-Azshara
53 23 Apr 2012 01:19 38.12M 480422.9 Void US-Laughing Skull
54 19 Jul 2012 01:19 31.82M 400402.2 HadeAndKo EU-Подземье
55 21 Apr 2012 01:19 30.85M 386838.6 тентакли старого Джо EU-Борейская тундра
56 01 Feb 2012 01:19 35.84M 449381.2 Superbia EU-Kazzak
57 11 Jul 2012 01:19 34.77M 435694.2 Insomnie EU-Elune
58 26 Jun 2012 01:19 34.59M 433211.5 Stimulate US-Mug'thol
59 12 Apr 2012 01:20 34.94M 436150.4 Agnostics EU-Ravencrest
60 18 Jul 2012 01:20 37.14M 463138.0 Depraved EU-Twilight's Hammer
61 18 Jul 2012 01:20 37.14M 462584.3 Decev's Logs EU-Stormreaver
62 18 Jun 2012 01:20 34.74M 432075.8 Логи дяди Дили EU-Ревущий фьорд
63 06 Feb 2012 01:20 30.97M 384505.1 Slashcry EU-Kazzak
64 15 Jul 2012 01:20 35.02M 433818.0 Vital US-Uldaman
65 16 Feb 2012 01:20 33.51M 414376.9 Last One - Core Vermelho US-Azralon
66 15 Apr 2012 01:20 35.11M 433576.7 Фрюшка Druid Balance EU-Гордунни
67 15 Apr 2012 01:20 35.11M 433576.7 Фрюшка Druid Balance EU-Гордунни
68 30 Jul 2012 01:21 33.23M 407845.1 Боцбоц EU-Свежеватель Душ
69 30 Jul 2012 01:21 33.23M 407830.0 Cubozao logs EU-Ревущий фьорд
70 08 Jul 2012 01:21 36.23M 444525.6 Vital US-Uldaman
71 02 Aug 2012 01:21 39.49M 484385.9 Martin's WOL EU-Sargeras
72 11 Mar 2012 01:21 33.28M 407422.9 Decimation EU-Dun Modr
73 08 Apr 2012 01:21 35.49M 433723.1 Crimson Blade US-Frostmourne
74 21 Aug 2012 01:21 31.18M 380930.1 Логи дяди Дили EU-Ревущий фьорд
75 30 Jul 2012 01:22 36.28M 442072.6 Hexus EU-Dun Modr
76 20 Aug 2012 01:22 34.97M 424153.1 Korona EU-Malfurion
77 22 Aug 2012 01:22 31.23M 378416.9 TLA EU-Drak'thul
78 12 Jul 2012 01:22 37.20M 450655.6 vodjka's logs EU-Ясеневый лес
79 27 Jun 2012 01:22 38.43M 465285.5 Fierce US-Bleeding Hollow
80 24 Mar 2012 01:22 31.24M 377995.0 ScrubBusters EU-The Maelstrom
81 06 Jun 2012 01:22 34.60M 418345.5 The Feral Aggressors US-Bronzebeard
82 15 Mar 2012 01:22 35.91M 433081.7 Fixed US-Blackrock
83 14 Aug 2012 01:23 40.37M 486320.9 Panda Town US-Illidan
84 26 Jul 2012 01:23 33.89M 408012.2 Gordita EU-Свежеватель Душ
85 25 Apr 2012 01:23 36.75M 442330.3 Crimson Blade US-Frostmourne
86 12 Mar 2012 01:23 37.56M 451838.4 Just try EU-Гордунни
87 25 Aug 2012 01:23 34.99M 420964.5 ameno EU-Illidan
88 25 Aug 2012 01:23 34.99M 420797.4 péon EU-Illidan
89 16 Mar 2012 01:23 35.05M 420859.4 Believe it or not EU-Eredar
90 16 Aug 2012 01:23 37.11M 444977.9 Selflog EU-Ревущий фьорд
91 11 Jul 2012 01:23 34.17M 409428.2 ВАСК ТО ВАСК EU-Ткач Смерти
92 03 Aug 2012 01:23 34.30M 410897.8 Ясеневые ЗайкИ EU-Черный Шрам
93 03 Aug 2012 01:23 34.30M 410809.2 Гильдия как Гильдия EU-Черный Шрам
94 25 Jul 2012 01:23 34.78M 416498.1 Атомная Романтика EU-Борейская тундра
95 21 Mar 2012 01:23 32.41M 387933.8 Exitium EU-Balnazzar
96 27 Jul 2012 01:23 34.20M 409260.7 vodjka's logs EU-Ясеневый лес
97 12 Aug 2012 01:23 31.97M 382275.7 Suck'thulandia EU-Drak'thul
98 09 Aug 2012 01:23 37.00M 441759.6 Progression US-Stormrage
99 02 Apr 2012 01:23 37.63M 448957.5 Hard in da Paint US-Bleeding Hollow
100 12 Aug 2012 01:23 31.97M 381277.3 Ladies First EU-Drak'thul

Please do not close the page with the ad you want to report.

I've posted a guide on how to report misbehaving ads on the forum. Please follow the instructions and help make the internet a safer place. Thanks for you time.